STARLINK-34454

Last updated on Thu Jul 03 2025 00:02:06 GMT+0000 (Coordinated Universal Time)

1 64357U 25126P 25183.58335648 -.01400771 00000+0 -16923-1 0 9995 2 64357 69.9993 310.2098 0003200 265.2259 322.6615 15.63222922 4329
UTC large
Height (km)
Speed (km/s)
/
Latitude / Longitude
Inclination (degrees)
Orbital Period (minutes)
Azimuth
Elevation
Range (km)
Doppler Factor

Next 0 passes for location: London (51.5072 / 0.1276)

Sorry there are no passes over London.